BRO-4 (49066 NORAD) Tracking and Keplerian Element Data

This shows tracking and keplerian element data for the satellite.

Feedback or suggestion? Click here.




ElementValue
Catalog49066
NameBRO-4
Epoch Orbit1081
Epoch Day300.88290867
Epoch Year2021
RAAN13.4443
Inclination97.5524
Eccentricity0.0029658
Argument of Perigee4.0485
Mean Anonmoly107.6017
Mean Motion15.08317498
Decay Rate1.735E-05
L11 49066U 21073A 21300.88290867 .00001735 00000-0 11484-3 0 9999
L22 49066 97.5524 13.4443 0029658 4.0485 107.6017 15.08317498 10817

Live tracking and technical data element details for BRO-4 (NORAD 49066). BRO-4 can be tracked NOW for your location showing map with azimuth and elevation plus other details from your city location.

Track the satellite on the map from your city or location and see movement details for azimuth, elevation, latitude, longitude, range, height, and movement on the map or in text.







IsCatalogInMostPopularTable: catalog: 49066, numindb: 11
Update: records affected: 1



GetName: 49066 BRO-4

Hit Count: updated at: Thu, 28 Oct 2021 11:39:48 GMT